Location: Godiavel Galaoual
(15.2485°N, 12.6604°W)
Time: 09:53:20
(UTC+00:00)

ATLAS 2AS CENTAUR R/B - Pass Details

Date: 27 February 2020
Orbit: 929 x 1283 km, 63.7° (Epoch: 26 March)

Event Time Altitude Azimuth Distance (km) Brightness Sun altitude
Rises 21:27:14 0° 227° (SW) 4,069 6.3 -36.8°
Reaches altitude 10° 21:30:13 10° 237° (WSW) 3,152 5.7 -37.5°
Maximum altitude 21:36:59 34° 299° (WNW) 1,951 4.3 -39.1°
Enters shadow 21:41:20 20° 347° (NNW) 2,556 4.7 -40.2°
